This is the latest recevied weather packets stored in our database for station/object AE5HO. If no packets are shown the sender has not sent any weather packets the latest 10 day(s).
| Time | Temp. | Humidity | Pressure | Rain* | Wind** | Luminosity | Snow |
|---|---|---|---|---|---|---|---|
| 1787524352 | 42.22° C | 29% | 1011.8 hPa | 0 mm | - | 34 W/m² | - |
| 1787524047 | 42.78° C | 28% | 1012.1 hPa | 0 mm | - | 40 W/m² | - |
| 1787523743 | 42.22° C | 29% | 1012.2 hPa | 0 mm | - | 42 W/m² | - |
| 1787523443 | 42.22° C | 29% | 1012.1 hPa | 0 mm | - | 45 W/m² | - |
| 1787523139 | 42.22° C | 30% | 1012.4 hPa | 0 mm | - | 43 W/m² | - |
| 1787522834 | 42.78° C | 28% | 1012.2 hPa | 0 mm | - | 50 W/m² | - |
| 1787522530 | 42.22° C | 29% | 1012.3 hPa | 0 mm | - | 57 W/m² | - |
| 1787522230 | 42.22° C | 30% | 1012.4 hPa | 0 mm | - | 59 W/m² | - |
| 1787521925 | 41.67° C | 29% | 1012.5 hPa | 0 mm | - | 59 W/m² | - |
| 1787521623 | 41.67° C | 30% | 1012.4 hPa | 0 mm | - | 55 W/m² | - |
| 1787521318 | 42.22° C | 29% | 1012.3 hPa | 0 mm | - | 59 W/m² | - |
| 1787521013 | 42.22° C | 29% | 1012.4 hPa | 0 mm | - | 66 W/m² | - |
| 1787520709 | 42.78° C | 29% | 1012.4 hPa | 0 mm | - | 72 W/m² | - |
| 1787520404 | 42.22° C | 30% | 1012.3 hPa | 0 mm | - | 73 W/m² | - |
| 1787520100 | 42.22° C | 29% | 1012.5 hPa | 0 mm | - | 77 W/m² | - |
| 1787519795 | 42.22° C | 30% | 1012.6 hPa | 0 mm | - | 79 W/m² | - |
| 1787519491 | 42.22° C | 30% | 1012.6 hPa | 0 mm | - | 83 W/m² | - |
| 1787519191 | 41.67° C | 29% | 1012.6 hPa | 0 mm | - | 87 W/m² | - |
| 1787518886 | 41.67° C | 29% | 1012.8 hPa | 0 mm | - | 92 W/m² | - |
| 1787518581 | 41.67° C | 30% | 1013 hPa | 0 mm | - | 93 W/m² | - |
| 1787518276 | 41.11° C | 30% | 1013 hPa | 0 mm | - | 94 W/m² | - |
| 1787517972 | 41.67° C | 31% | 1013.3 hPa | 0 mm | - | 99 W/m² | - |
| 1787517668 | 41.67° C | 31% | 1013.6 hPa | 0 mm | - | 104 W/m² | - |
| 1787517364 | 41.67° C | 31% | 1013.1 hPa | 0 mm | - | 104 W/m² | - |
| 1787517060 | 41.67° C | 31% | 1013.4 hPa | 0 mm | - | 105 W/m² | - |
* Rain latest hour (hover to see other rain measurements)
** Current wind speed in m/s (hover to see current wind gust speed)